Location: Street
(51.1247°N, 2.7429°W)
Time: 02:54:09
(UTC+00:00)

deb Explorer IX - Pass Details

Date: 12 December 2020
Orbit: 536 x 1104 km, 38.8° (Epoch: 20 January)

Event Time Altitude Azimuth Distance (km) Brightness Sun altitude
Rises 11:21:32 0° 221° (SW) 3,857 ? 15.1°
Reaches altitude 10° 11:24:52 10° 207° (SSW) 2,939 ? 15.2°
Maximum altitude 11:30:15 23° 160° (SSE) 2,167 ? 15.4°
Drops below altitude 10° 11:35:35 10° 112° (ESE) 2,922 ? 15.5°
Sets 11:38:53 0° 98° (E) 3,829 ? 15.5°
